Time,TemperatureF,DewpointF,PressureIn,WindDirection,WindDirectionDegrees,WindSpeedMPH,WindSpeedGustMPH,Humidity,HourlyPrecipIn,Conditions,Clouds,dailyrainin,SoftwareType,DateUTC
2013-01-11 00:01:00,31.3,28.4,30.49,ENE,70,0.0,0.0,89,0.00,,CLR,0.00,VWS V14.01,2013-01-11 05:01:00,
2013-01-11 00:02:00,31.3,28.4,30.50,ENE,70,0.0,0.0,89,0.00,,CLR,0.00,VWS V14.01,2013-01-11 05:02:00,
2013-01-11 00:03:00,31.3,28.4,30.50,ENE,70,0.0,0.0,89,0.00,,CLR,0.00,VWS V14.01,2013-01-11 05:03:00,
2013-01-11 00:08:00,31.3,28.4,30.50,ENE,70,0.0,0.0,89,0.00,,CLR,0.00,VWS V14.01,2013-01-11 05:08:00,
2013-01-11 00:13:00,31.2,28.3,30.50,ENE,70,0.0,0.0,89,0.00,,CLR,0.00,VWS V14.01,2013-01-11 05:13:00,
2013-01-11 00:18:00,31.2,28.3,30.49,ENE,70,0.0,0.0,89,0.00,,CLR,0.00,VWS V14.01,2013-01-11 05:18:00,
2013-01-11 00:23:00,31.3,28.4,30.49,ESE,114,0.0,0.0,89,0.00,,CLR,0.00,VWS V14.01,2013-01-11 05:23:00,
2013-01-11 00:28:00,31.3,28.4,30.48,East,101,0.0,0.0,89,0.00,,CLR,0.00,VWS V14.01,2013-01-11 05:28:00,
2013-01-11 00:33:00,31.3,28.4,30.48,East,92,0.0,0.0,89,0.00,,CLR,0.00,VWS V14.01,2013-01-11 05:33:00,
2013-01-11 00:38:00,31.4,28.5,30.48,NNE,27,0.0,3.0,89,0.00,,CLR,0.00,VWS V14.01,2013-01-11 05:38:00,
2013-01-11 00:43:00,31.3,28.4,30.48,East,84,1.0,3.0,89,0.00,,CLR,0.00,VWS V14.01,2013-01-11 05:43:00,
2013-01-11 00:48:00,31.3,28.4,30.48,East,79,1.0,3.0,89,0.00,,CLR,0.00,VWS V14.01,2013-01-11 05:48:00,
2013-01-11 00:53:00,31.3,28.4,30.48,ENE,63,0.0,3.0,89,0.00,,CLR,0.00,VWS V14.01,2013-01-11 05:53:00,
2013-01-11 00:58:00,31.3,28.4,30.48,ENE,67,0.0,3.0,89,0.00,,CLR,0.00,VWS V14.01,2013-01-11 05:58:00,
2013-01-11 01:03:00,31.3,28.4,30.47,East,81,0.0,0.0,89,0.00,,CLR,0.00,VWS V14.01,2013-01-11 06:03:00,
2013-01-11 01:08:00,31.3,28.4,30.46,East,82,2.0,2.0,89,0.00,,CLR,0.00,VWS V14.01,2013-01-11 06:08:00,
2013-01-11 01:13:00,31.3,28.4,30.47,East,85,0.0,2.0,89,0.00,,CLR,0.00,VWS V14.01,2013-01-11 06:13:00,
2013-01-11 01:18:00,31.2,28.3,30.47,ENE,58,0.0,2.0,89,0.00,,CLR,0.00,VWS V14.01,2013-01-11 06:18:00,
2013-01-11 01:23:00,31.2,28.3,30.47,East,88,1.0,3.0,89,0.00,,CLR,0.00,VWS V14.01,2013-01-11 06:23:00,
2013-01-11 01:28:00,31.2,28.3,30.47,East,88,1.0,3.0,89,0.00,,CLR,0.00,VWS V14.01,2013-01-11 06:28:00,
2013-01-11 01:33:00,31.3,28.4,30.47,NE,54,0.0,2.0,89,0.00,,CLR,0.00,VWS V14.01,2013-01-11 06:33:00,
2013-01-11 01:38:00,31.4,28.5,30.47,East,85,0.0,2.0,89,0.00,,CLR,0.00,VWS V14.01,2013-01-11 06:38:00,
2013-01-11 01:43:00,31.4,28.5,30.47,East,85,0.0,2.0,89,0.00,,CLR,0.00,VWS V14.01,2013-01-11 06:43:00,
2013-01-11 01:48:00,31.4,28.5,30.46,East,85,0.0,2.0,89,0.00,,CLR,0.00,VWS V14.01,2013-01-11 06:48:00,
2013-01-11 01:53:00,31.4,28.5,30.46,East,85,0.0,2.0,89,0.00,,CLR,0.00,VWS V14.01,2013-01-11 06:53:00,
2013-01-11 01:58:00,31.4,28.5,30.46,East,84,0.0,2.0,89,0.00,,CLR,0.00,VWS V14.01,2013-01-11 06:58:00,
2013-01-11 02:03:00,31.4,28.5,30.46,East,89,1.0,2.0,89,0.00,,CLR,0.00,VWS V14.01,2013-01-11 07:03:00,
2013-01-11 02:08:00,31.5,28.6,30.45,NE,44,2.0,3.0,89,0.00,,CLR,0.00,VWS V14.01,2013-01-11 07:08:00,
2013-01-11 02:13:00,31.6,28.7,30.46,NE,51,0.0,3.0,89,0.00,,CLR,0.00,VWS V14.01,2013-01-11 07:13:00,
2013-01-11 02:18:00,31.6,28.7,30.46,NE,49,0.0,3.0,89,0.00,,CLR,0.00,VWS V14.01,2013-01-11 07:18:00,
2013-01-11 02:23:00,31.7,28.8,30.46,East,92,1.0,3.0,89,0.00,,CLR,0.00,VWS V14.01,2013-01-11 07:23:00,
2013-01-11 02:28:00,31.9,28.8,30.46,ESE,115,0.0,3.0,88,0.00,,CLR,0.00,VWS V14.01,2013-01-11 07:28:00,
2013-01-11 02:33:00,32.0,28.9,30.45,NE,52,1.0,2.0,88,0.00,,CLR,0.00,VWS V14.01,2013-01-11 07:33:00,
2013-01-11 02:38:00,32.1,29.0,30.45,NE,39,0.0,3.0,88,0.00,,CLR,0.00,VWS V14.01,2013-01-11 07:38:00,
2013-01-11 02:43:00,32.3,28.9,30.45,ENE,73,1.0,4.0,87,0.00,,CLR,0.00,VWS V14.01,2013-01-11 07:43:00,
2013-01-11 02:48:00,32.3,28.9,30.45,ENE,70,2.0,4.0,87,0.00,,CLR,0.00,VWS V14.01,2013-01-11 07:48:00,
2013-01-11 02:53:00,32.2,28.8,30.46,East,81,1.0,4.0,87,0.00,,CLR,0.00,VWS V14.01,2013-01-11 07:53:00,
2013-01-11 02:58:00,32.2,28.8,30.45,East,91,0.0,4.0,87,0.00,,CLR,0.00,VWS V14.01,2013-01-11 07:58:00,
2013-01-11 03:03:00,32.3,28.9,30.44,ESE,103,0.0,0.0,87,0.00,,CLR,0.00,VWS V14.01,2013-01-11 08:03:00,
2013-01-11 03:08:00,32.2,28.8,30.44,ESE,108,0.0,0.0,87,0.00,,CLR,0.00,VWS V14.01,2013-01-11 08:08:00,
2013-01-11 03:13:00,32.2,28.8,30.44,ENE,67,0.0,0.0,87,0.00,,CLR,0.00,VWS V14.01,2013-01-11 08:13:00,
2013-01-11 03:18:00,32.3,28.9,30.44,NNE,31,0.0,0.0,87,0.00,,CLR,0.00,VWS V14.01,2013-01-11 08:18:00,
2013-01-11 03:23:00,32.4,29.0,30.44,NNE,32,0.0,0.0,87,0.00,,CLR,0.00,VWS V14.01,2013-01-11 08:23:00,
2013-01-11 03:28:00,32.4,29.0,30.44,NNE,31,0.0,0.0,87,0.00,,CLR,0.00,VWS V14.01,2013-01-11 08:28:00,
2013-01-11 03:33:00,32.4,29.0,30.43,NNE,32,0.0,0.0,87,0.00,,CLR,0.00,VWS V14.01,2013-01-11 08:33:00,
2013-01-11 03:38:00,32.5,29.1,30.44,NNE,20,1.0,2.0,87,0.00,,CLR,0.00,VWS V14.01,2013-01-11 08:38:00,
2013-01-11 03:43:00,32.6,29.2,30.44,North,6,0.0,2.0,87,0.00,,CLR,0.00,VWS V14.01,2013-01-11 08:43:00,
2013-01-11 03:48:00,32.7,29.0,30.43,NNE,33,0.0,2.0,86,0.00,,CLR,0.00,VWS V14.01,2013-01-11 08:48:00,
2013-01-11 03:53:00,33.0,29.3,30.43,NE,40,1.0,3.0,86,0.00,,CLR,0.00,VWS V14.01,2013-01-11 08:53:00,
2013-01-11 03:58:00,33.1,29.1,30.43,NNE,23,1.0,3.0,85,0.00,,CLR,0.00,VWS V14.01,2013-01-11 08:58:00,
2013-01-11 04:03:00,33.1,29.1,30.42,East,84,2.0,3.0,85,0.00,,CLR,0.00,VWS V14.01,2013-01-11 09:03:00,
2013-01-11 04:08:00,32.9,28.9,30.42,ENE,62,0.0,3.0,85,0.00,,CLR,0.00,VWS V14.01,2013-01-11 09:08:00,
2013-01-11 04:13:00,32.9,29.2,30.41,ENE,61,0.0,3.0,86,0.00,,CLR,0.00,VWS V14.01,2013-01-11 09:13:00,
2013-01-11 04:18:00,32.9,29.2,30.41,ESE,104,0.0,3.0,86,0.00,,CLR,0.00,VWS V14.01,2013-01-11 09:18:00,
2013-01-11 04:23:00,33.2,29.5,30.41,NE,39,1.0,4.0,86,0.00,,CLR,0.00,VWS V14.01,2013-01-11 09:23:00,
2013-01-11 04:28:00,33.7,29.4,30.41,ENE,60,0.0,4.0,84,0.00,,CLR,0.00,VWS V14.01,2013-01-11 09:28:00,
2013-01-11 04:33:00,33.9,29.6,30.41,SW,232,0.0,2.0,84,0.00,,CLR,0.00,VWS V14.01,2013-01-11 09:33:00,
2013-01-11 04:38:00,33.8,29.5,30.41,SSW,203,0.0,2.0,84,0.00,,CLR,0.00,VWS V14.01,2013-01-11 09:38:00,
2013-01-11 04:43:00,33.6,29.3,30.41,South,183,0.0,2.0,84,0.00,,CLR,0.00,VWS V14.01,2013-01-11 09:43:00,
2013-01-11 04:48:00,33.6,29.3,30.41,NE,52,2.0,2.0,84,0.00,,CLR,0.00,VWS V14.01,2013-01-11 09:48:00,
2013-01-11 04:53:00,33.5,29.5,30.41,SW,215,1.0,2.0,85,0.00,,CLR,0.00,VWS V14.01,2013-01-11 09:53:00,
2013-01-11 04:58:00,33.5,29.2,30.41,ENE,70,0.0,2.0,84,0.00,,CLR,0.00,VWS V14.01,2013-01-11 09:58:00,
2013-01-11 05:03:00,33.8,29.5,30.41,NE,49,2.0,2.0,84,0.00,,OVC110,0.00,VWS V14.01,2013-01-11 10:03:00,
2013-01-11 05:08:00,34.0,29.4,30.41,WSW,249,1.0,2.0,83,0.00,,OVC110,0.00,VWS V14.01,2013-01-11 10:08:00,
2013-01-11 05:13:00,34.1,29.5,30.41,SW,221,0.0,2.0,83,0.00,,OVC110,0.00,VWS V14.01,2013-01-11 10:13:00,
2013-01-11 05:18:00,34.2,29.6,30.41,NE,34,2.0,3.0,83,0.00,,OVC110,0.00,VWS V14.01,2013-01-11 10:18:00,
2013-01-11 05:23:00,34.4,29.8,30.41,West,281,1.0,3.0,83,0.00,,OVC110,0.00,VWS V14.01,2013-01-11 10:23:00,
2013-01-11 05:28:00,34.5,29.6,30.40,East,80,2.0,3.0,82,0.00,,OVC110,0.00,VWS V14.01,2013-01-11 10:28:00,
2013-01-11 05:33:00,34.5,29.6,30.39,ENE,75,1.0,1.0,82,0.00,,OVC110,0.00,VWS V14.01,2013-01-11 10:33:00,
2013-01-11 05:38:00,34.6,29.7,30.39,ESE,102,1.0,2.0,82,0.00,,OVC110,0.00,VWS V14.01,2013-01-11 10:38:00,
2013-01-11 05:43:00,34.8,29.9,30.39,SSE,158,1.0,3.0,82,0.00,,OVC110,0.00,VWS V14.01,2013-01-11 10:43:00,
2013-01-11 05:48:00,35.3,29.8,30.39,East,84,1.0,4.0,80,0.00,,OVC110,0.00,VWS V14.01,2013-01-11 10:48:00,
2013-01-11 05:53:00,36.0,29.8,30.39,ENE,77,2.0,4.0,78,0.00,,OVC110,0.00,VWS V14.01,2013-01-11 10:53:00,
2013-01-11 05:58:00,36.2,29.7,30.39,WSW,238,2.0,4.0,77,0.00,,OVC110,0.00,VWS V14.01,2013-01-11 10:58:00,
2013-01-11 06:03:00,36.1,29.6,30.39,South,183,0.0,4.0,77,0.00,,OVC120,0.00,VWS V14.01,2013-01-11 11:03:00,
2013-01-11 06:08:00,36.3,29.8,30.39,East,82,3.0,4.0,77,0.00,,OVC120,0.00,VWS V14.01,2013-01-11 11:08:00,
2013-01-11 06:13:00,37.1,29.6,30.38,East,90,5.0,6.0,74,0.00,,OVC120,0.00,VWS V14.01,2013-01-11 11:13:00,
2013-01-11 06:18:00,37.4,29.5,30.39,ESE,108,3.0,6.0,73,0.00,,OVC120,0.00,VWS V14.01,2013-01-11 11:18:00,
2013-01-11 06:23:00,37.7,29.5,30.38,East,94,3.0,6.0,72,0.00,,OVC120,0.00,VWS V14.01,2013-01-11 11:23:00,
2013-01-11 06:28:00,37.6,29.7,30.38,SSE,162,2.0,6.0,73,0.00,,OVC120,0.00,VWS V14.01,2013-01-11 11:28:00,
2013-01-11 06:33:00,37.6,29.4,30.38,ENE,70,2.0,5.0,72,0.00,,OVC120,0.00,VWS V14.01,2013-01-11 11:33:00,
2013-01-11 06:38:00,37.8,29.6,30.38,ESE,115,1.0,5.0,72,0.00,,OVC120,0.00,VWS V14.01,2013-01-11 11:38:00,
2013-01-11 06:43:00,38.0,29.5,30.38,ENE,77,4.0,7.0,71,0.00,,OVC120,0.00,VWS V14.01,2013-01-11 11:43:00,
2013-01-11 06:48:00,38.0,29.5,30.38,NE,44,6.0,8.0,71,0.00,,OVC120,0.00,VWS V14.01,2013-01-11 11:48:00,
2013-01-11 06:53:00,38.1,29.5,30.38,ESE,104,2.0,8.0,71,0.00,,OVC120,0.00,VWS V14.01,2013-01-11 11:53:00,
2013-01-11 06:58:00,38.2,29.3,30.38,East,101,4.0,11.0,70,0.00,,OVC120,0.00,VWS V14.01,2013-01-11 11:58:00,
2013-01-11 07:03:00,38.2,29.3,30.38,East,98,1.0,6.0,70,0.00,,OVC100,0.00,VWS V14.01,2013-01-11 12:03:00,
2013-01-11 07:08:00,38.2,29.3,30.38,ENE,68,3.0,6.0,70,0.00,,OVC100,0.00,VWS V14.01,2013-01-11 12:08:00,
2013-01-11 07:13:00,38.1,29.5,30.39,SE,132,3.0,6.0,71,0.00,,OVC100,0.00,VWS V14.01,2013-01-11 12:13:00,
2013-01-11 07:18:00,38.3,29.4,30.39,ENE,63,1.0,6.0,70,0.00,,OVC100,0.00,VWS V14.01,2013-01-11 12:18:00,
2013-01-11 07:23:00,38.3,29.0,30.39,ENE,70,7.0,9.0,69,0.00,,OVC100,0.00,VWS V14.01,2013-01-11 12:23:00,
2013-01-11 07:28:00,38.5,29.2,30.39,East,86,3.0,9.0,69,0.00,,OVC100,0.00,VWS V14.01,2013-01-11 12:28:00,
2013-01-11 07:33:00,38.4,29.1,30.39,East,100,1.0,1.0,69,0.00,,OVC100,0.00,VWS V14.01,2013-01-11 12:33:00,
2013-01-11 07:38:00,38.2,29.3,30.39,East,91,0.0,3.0,70,0.00,,OVC100,0.00,VWS V14.01,2013-01-11 12:38:00,
2013-01-11 07:43:00,38.1,29.2,30.38,East,86,4.0,5.0,70,0.00,,OVC100,0.00,VWS V14.01,2013-01-11 12:43:00,
2013-01-11 07:48:00,38.1,29.5,30.38,ESE,115,2.0,6.0,71,0.00,,OVC100,0.00,VWS V14.01,2013-01-11 12:48:00,
2013-01-11 07:53:00,38.2,29.3,30.38,NE,42,4.0,8.0,70,0.00,,OVC100,0.00,VWS V14.01,2013-01-11 12:53:00,
2013-01-11 07:58:00,38.4,29.5,30.38,East,80,3.0,8.0,70,0.00,,OVC100,0.00,VWS V14.01,2013-01-11 12:58:00,
2013-01-11 08:03:00,38.3,29.4,30.37,East,97,4.0,6.0,70,0.00,,OVC095,0.00,VWS V14.01,2013-01-11 13:03:00,
2013-01-11 08:08:00,38.2,29.3,30.36,ESE,117,4.0,6.0,70,0.00,,OVC095,0.00,VWS V14.01,2013-01-11 13:08:00,
2013-01-11 08:13:00,38.2,29.3,30.37,East,86,2.0,9.0,70,0.00,,OVC095,0.00,VWS V14.01,2013-01-11 13:13:00,
2013-01-11 08:18:00,38.3,29.4,30.37,NNE,29,1.0,9.0,70,0.00,,OVC095,0.00,VWS V14.01,2013-01-11 13:18:00,
2013-01-11 08:23:00,38.3,29.4,30.38,ESE,113,0.0,9.0,70,0.00,,OVC095,0.00,VWS V14.01,2013-01-11 13:23:00,
2013-01-11 08:28:00,38.3,29.4,30.39,ENE,62,1.0,9.0,70,0.00,,OVC095,0.00,VWS V14.01,2013-01-11 13:28:00,
2013-01-11 08:33:00,38.5,29.2,30.38,East,87,5.0,5.0,69,0.00,,OVC095,0.00,VWS V14.01,2013-01-11 13:33:00,
2013-01-11 08:38:00,38.9,29.2,30.38,East,81,1.0,5.0,68,0.00,,OVC095,0.00,VWS V14.01,2013-01-11 13:38:00,
2013-01-11 08:43:00,38.7,29.4,30.37,West,274,0.0,5.0,69,0.00,,OVC095,0.00,VWS V14.01,2013-01-11 13:43:00,
2013-01-11 08:48:00,38.7,29.4,30.37,NNE,26,2.0,5.0,69,0.00,,OVC095,0.00,VWS V14.01,2013-01-11 13:48:00,
2013-01-11 08:53:00,38.9,29.6,30.36,ENE,60,3.0,6.0,69,0.00,,OVC095,0.00,VWS V14.01,2013-01-11 13:53:00,
2013-01-11 08:58:00,38.9,29.6,30.36,SW,218,1.0,6.0,69,0.00,,OVC095,0.00,VWS V14.01,2013-01-11 13:58:00,
2013-01-11 09:03:00,39.1,29.5,30.36,ESE,113,3.0,6.0,68,0.00,,OVC200,0.00,VWS V14.01,2013-01-11 14:03:00,
2013-01-11 09:08:00,39.1,29.5,30.36,SE,129,1.0,6.0,68,0.00,,OVC200,0.00,VWS V14.01,2013-01-11 14:08:00,
2013-01-11 09:13:00,39.1,29.5,30.35,East,84,2.0,6.0,68,0.00,,OVC200,0.00,VWS V14.01,2013-01-11 14:13:00,
2013-01-11 09:18:00,39.2,29.5,30.35,ESE,107,2.0,6.0,68,0.00,,OVC200,0.00,VWS V14.01,2013-01-11 14:18:00,
2013-01-11 09:23:00,39.3,29.6,30.34,ESE,117,2.0,6.0,68,0.00,,OVC200,0.00,VWS V14.01,2013-01-11 14:23:00,
2013-01-11 09:28:00,39.5,29.5,30.34,ENE,58,2.0,7.0,67,0.00,,OVC200,0.00,VWS V14.01,2013-01-11 14:28:00,
2013-01-11 09:33:00,39.5,29.5,30.34,East,79,3.0,7.0,67,0.00,,OVC200,0.00,VWS V14.01,2013-01-11 14:33:00,
2013-01-11 09:37:00,39.6,29.6,30.34,SSW,200,0.0,7.0,67,0.00,,OVC200,0.00,VWS V14.01,2013-01-11 14:37:00,
2013-01-11 09:42:00,39.5,29.5,30.33,ESE,103,1.0,7.0,67,0.00,,OVC200,0.00,VWS V14.01,2013-01-11 14:42:00,
2013-01-11 09:47:00,39.3,30.0,30.34,East,91,2.0,8.0,69,0.00,,OVC200,0.00,VWS V14.01,2013-01-11 14:47:00,
2013-01-11 09:52:00,39.2,30.2,30.33,ESE,123,4.0,8.0,70,0.00,,OVC200,0.00,VWS V14.01,2013-01-11 14:52:00,
2013-01-11 09:57:00,39.0,30.4,30.33,South,190,1.0,8.0,71,0.02,,OVC200,0.02,VWS V14.01,2013-01-11 14:57:00,
2013-01-11 10:02:00,38.8,30.9,30.34,ENE,75,3.0,5.0,73,0.02,,OVC200,0.02,VWS V14.01,2013-01-11 15:02:00,
2013-01-11 10:07:00,38.7,30.8,30.33,ESE,108,5.0,6.0,73,0.02,,OVC200,0.02,VWS V14.01,2013-01-11 15:07:00,
2013-01-11 10:12:00,38.9,30.7,30.33,ESE,122,1.0,8.0,72,0.02,,OVC200,0.02,VWS V14.01,2013-01-11 15:12:00,
2013-01-11 10:17:00,39.0,31.1,30.32,East,90,0.0,8.0,73,0.02,,OVC200,0.02,VWS V14.01,2013-01-11 15:17:00,
2013-01-11 10:22:00,39.0,31.1,30.32,ENE,77,3.0,8.0,73,0.02,,OVC200,0.02,VWS V14.01,2013-01-11 15:22:00,
2013-01-11 10:27:00,39.0,30.8,30.31,SW,232,1.0,8.0,72,0.02,,OVC200,0.02,VWS V14.01,2013-01-11 15:27:00,
2013-01-11 10:32:00,39.1,30.2,30.31,ESE,102,4.0,7.0,70,0.02,,-RA,0.02,VWS V14.01,2013-01-11 15:32:00,
2013-01-11 10:37:00,39.2,30.2,30.30,East,83,4.0,8.0,70,0.02,,-RA,0.02,VWS V14.01,2013-01-11 15:37:00,
2013-01-11 10:42:00,39.3,30.4,30.30,East,82,4.0,8.0,70,0.02,,-RA,0.02,VWS V14.01,2013-01-11 15:42:00,
2013-01-11 10:47:00,39.3,30.4,30.30,East,80,4.0,8.0,70,0.02,,-RA,0.02,VWS V14.01,2013-01-11 15:47:00,
2013-01-11 10:52:00,39.4,30.4,30.30,East,84,2.0,8.0,70,0.02,,-RA,0.02,VWS V14.01,2013-01-11 15:52:00,
2013-01-11 10:57:00,39.5,30.2,30.28,East,101,2.0,8.0,69,0.02,,-RA,0.02,VWS V14.01,2013-01-11 15:57:00,
2013-01-11 11:02:00,39.6,30.3,30.29,SW,236,1.0,5.0,69,0.00,,OVC090,0.02,VWS V14.01,2013-01-11 16:02:00,
2013-01-11 11:07:00,39.7,30.4,30.28,ENE,76,4.0,8.0,69,0.00,,OVC090,0.02,VWS V14.01,2013-01-11 16:07:00,
2013-01-11 11:12:00,39.9,30.2,30.28,ENE,75,2.0,9.0,68,0.00,,OVC090,0.02,VWS V14.01,2013-01-11 16:12:00,
2013-01-11 11:17:00,40.1,30.4,30.28,SSE,160,2.0,9.0,68,0.00,,OVC090,0.02,VWS V14.01,2013-01-11 16:17:00,
2013-01-11 11:22:00,40.2,30.1,30.27,East,95,2.0,9.0,67,0.00,,OVC090,0.02,VWS V14.01,2013-01-11 16:22:00,
2013-01-11 11:27:00,40.4,30.7,30.27,West,281,2.0,9.0,68,0.00,,OVC090,0.02,VWS V14.01,2013-01-11 16:27:00,
2013-01-11 11:32:00,40.6,30.5,30.26,East,93,1.0,5.0,67,0.00,,OVC090,0.02,VWS V14.01,2013-01-11 16:32:00,
2013-01-11 11:37:00,40.8,30.3,30.26,SE,125,0.0,5.0,66,0.00,,OVC090,0.02,VWS V14.01,2013-01-11 16:37:00,
2013-01-11 11:42:00,40.9,30.4,30.25,SW,233,2.0,7.0,66,0.00,,OVC090,0.02,VWS V14.01,2013-01-11 16:42:00,
2013-01-11 11:47:00,41.0,30.9,30.25,ESE,108,1.0,7.0,67,0.00,,OVC090,0.02,VWS V14.01,2013-01-11 16:47:00,
2013-01-11 11:52:00,41.0,30.5,30.25,SW,218,1.0,7.0,66,0.00,,OVC090,0.02,VWS V14.01,2013-01-11 16:52:00,
2013-01-11 11:57:00,41.1,30.6,30.25,ESE,115,4.0,7.0,66,0.00,,OVC090,0.02,VWS V14.01,2013-01-11 16:57:00,
2013-01-11 12:02:00,41.3,31.2,30.25,East,92,7.0,9.0,67,0.00,,OVC150,0.02,VWS V14.01,2013-01-11 17:02:00,
2013-01-11 12:07:00,41.5,31.0,30.24,East,79,2.0,9.0,66,0.00,,OVC150,0.02,VWS V14.01,2013-01-11 17:07:00,
2013-01-11 12:12:00,41.6,31.1,30.24,SSE,149,2.0,9.0,66,0.00,,OVC150,0.02,VWS V14.01,2013-01-11 17:12:00,
2013-01-11 12:17:00,41.8,31.3,30.23,SSE,150,1.0,9.0,66,0.00,,OVC150,0.02,VWS V14.01,2013-01-11 17:17:00,
2013-01-11 12:22:00,41.8,30.9,30.23,East,82,3.0,9.0,65,0.00,,OVC150,0.02,VWS V14.01,2013-01-11 17:22:00,
2013-01-11 12:27:00,41.8,31.3,30.22,SSW,208,1.0,9.0,66,0.00,,OVC150,0.02,VWS V14.01,2013-01-11 17:27:00,
2013-01-11 12:32:00,41.9,31.0,30.22,East,82,2.0,6.0,65,0.00,,OVC150,0.02,VWS V14.01,2013-01-11 17:32:00,
2013-01-11 12:37:00,41.8,30.9,30.22,SW,231,3.0,8.0,65,0.00,,OVC150,0.02,VWS V14.01,2013-01-11 17:37:00,
2013-01-11 12:42:00,41.7,30.8,30.21,East,92,3.0,8.0,65,0.00,,OVC150,0.02,VWS V14.01,2013-01-11 17:42:00,
2013-01-11 12:47:00,41.5,31.0,30.21,ESE,113,2.0,13.0,66,0.00,,OVC150,0.02,VWS V14.01,2013-01-11 17:47:00,
2013-01-11 12:52:00,41.4,30.9,30.20,East,85,1.0,13.0,66,0.00,,OVC150,0.02,VWS V14.01,2013-01-11 17:52:00,
2013-01-11 12:57:00,41.3,31.2,30.21,SW,229,3.0,13.0,67,0.00,,OVC150,0.02,VWS V14.01,2013-01-11 17:57:00,
2013-01-11 13:02:00,41.3,31.2,30.20,ENE,69,4.0,6.0,67,0.00,,OVC040,0.02,VWS V14.01,2013-01-11 18:02:00,
2013-01-11 13:07:00,41.2,31.5,30.20,West,266,0.0,6.0,68,0.00,,OVC040,0.02,VWS V14.01,2013-01-11 18:07:00,
2013-01-11 13:12:00,41.2,31.8,30.20,SE,142,1.0,6.0,69,0.00,,OVC040,0.02,VWS V14.01,2013-01-11 18:12:00,
2013-01-11 13:17:00,41.1,31.7,30.20,ESE,122,2.0,6.0,69,0.00,,OVC040,0.02,VWS V14.01,2013-01-11 18:17:00,
2013-01-11 13:22:00,41.0,31.6,30.20,SSW,200,0.0,6.0,69,0.00,,OVC040,0.02,VWS V14.01,2013-01-11 18:22:00,
2013-01-11 13:27:00,40.9,31.5,30.20,East,92,1.0,6.0,69,0.00,,OVC040,0.02,VWS V14.01,2013-01-11 18:27:00,
2013-01-11 13:32:00,40.9,31.5,30.19,East,94,1.0,3.0,69,0.00,,OVC040,0.02,VWS V14.01,2013-01-11 18:32:00,
2013-01-11 13:37:00,40.8,31.8,30.19,NE,49,2.0,3.0,70,0.00,,OVC040,0.02,VWS V14.01,2013-01-11 18:37:00,
2013-01-11 13:42:00,40.6,32.0,30.19,East,89,2.0,3.0,71,0.00,,OVC040,0.02,VWS V14.01,2013-01-11 18:42:00,
2013-01-11 13:47:00,40.5,32.2,30.19,ESE,104,1.0,4.0,72,0.00,,OVC040,0.02,VWS V14.01,2013-01-11 18:47:00,
2013-01-11 13:52:00,40.4,32.4,30.18,East,98,1.0,4.0,73,0.00,,OVC040,0.02,VWS V14.01,2013-01-11 18:52:00,
2013-01-11 13:57:00,40.3,32.3,30.18,ENE,68,1.0,8.0,73,0.01,,OVC040,0.03,VWS V14.01,2013-01-11 18:57:00,
2013-01-11 14:02:00,40.2,32.2,30.18,East,80,2.0,5.0,73,0.01,,-RA,0.03,VWS V14.01,2013-01-11 19:02:00,
2013-01-11 14:07:00,40.0,32.7,30.18,ENE,69,3.0,6.0,75,0.01,,-RA,0.03,VWS V14.01,2013-01-11 19:07:00,
2013-01-11 14:12:00,39.8,32.9,30.18,East,100,1.0,6.0,76,0.04,,-RA,0.06,VWS V14.01,2013-01-11 19:12:00,
2013-01-11 14:17:00,39.5,33.2,30.18,East,98,2.0,6.0,78,0.05,,-RA,0.07,VWS V14.01,2013-01-11 19:17:00,
2013-01-11 14:22:00,39.5,33.2,30.18,ESE,104,4.0,6.0,78,0.05,,-RA,0.07,VWS V14.01,2013-01-11 19:22:00,
2013-01-11 14:27:00,39.3,33.7,30.18,ENE,61,4.0,7.0,80,0.06,,-RA,0.08,VWS V14.01,2013-01-11 19:27:00,
2013-01-11 14:32:00,39.4,33.4,30.19,SE,131,3.0,3.0,79,0.06,,-RA,0.08,VWS V14.01,2013-01-11 19:32:00,
2013-01-11 14:37:00,39.4,33.8,30.19,East,91,2.0,4.0,80,0.07,,-RA,0.09,VWS V14.01,2013-01-11 19:37:00,
2013-01-11 14:42:00,39.1,33.8,30.19,ESE,108,1.0,4.0,81,0.10,,-RA,0.12,VWS V14.01,2013-01-11 19:42:00,
2013-01-11 14:47:00,38.7,34.3,30.19,WSW,248,0.0,4.0,84,0.13,,-RA,0.15,VWS V14.01,2013-01-11 19:47:00,
2013-01-11 14:52:00,38.4,34.3,30.19,WSW,248,0.0,4.0,85,0.16,,-RA,0.18,VWS V14.01,2013-01-11 19:52:00,
2013-01-11 14:57:00,38.1,34.6,30.18,East,91,1.0,4.0,87,0.17,,-RA,0.19,VWS V14.01,2013-01-11 19:57:00,
2013-01-11 15:02:00,38.2,34.7,30.18,ESE,103,0.0,3.0,87,0.17,, +RA,0.20,VWS V14.01,2013-01-11 20:02:00,
2013-01-11 15:07:00,38.1,34.6,30.19,ENE,59,1.0,3.0,87,0.18,, +RA,0.21,VWS V14.01,2013-01-11 20:07:00,
2013-01-11 15:12:00,38.0,34.8,30.18,East,82,2.0,3.0,88,0.18,, +RA,0.21,VWS V14.01,2013-01-11 20:12:00,
2013-01-11 15:17:00,38.0,35.0,30.18,East,86,1.0,3.0,89,0.19,, +RA,0.22,VWS V14.01,2013-01-11 20:17:00,
2013-01-11 15:22:00,37.9,35.0,30.18,NE,54,0.0,3.0,89,0.19,, +RA,0.22,VWS V14.01,2013-01-11 20:22:00,
2013-01-11 15:27:00,37.9,35.2,30.17,East,83,1.0,3.0,90,0.20,, +RA,0.23,VWS V14.01,2013-01-11 20:27:00,
2013-01-11 15:32:00,37.8,35.1,30.17,NNE,25,0.0,2.0,90,0.15,,RA,0.23,VWS V14.01,2013-01-11 20:32:00,
2013-01-11 15:37:00,37.8,35.4,30.17,NNE,15,0.0,2.0,91,0.15,,RA,0.23,VWS V14.01,2013-01-11 20:37:00,
2013-01-11 15:42:00,37.8,35.4,30.17,ENE,62,0.0,2.0,91,0.15,,RA,0.23,VWS V14.01,2013-01-11 20:42:00,
2013-01-11 15:47:00,37.8,35.4,30.17,NNE,14,0.0,2.0,91,0.15,,RA,0.23,VWS V14.01,2013-01-11 20:47:00,
2013-01-11 15:52:00,37.9,35.5,30.17,NE,53,2.0,4.0,91,0.15,,RA,0.23,VWS V14.01,2013-01-11 20:52:00,
2013-01-11 15:57:00,38.0,35.6,30.16,ENE,62,0.0,4.0,91,0.15,,RA,0.23,VWS V14.01,2013-01-11 20:57:00,
2013-01-11 16:02:00,38.1,35.4,30.16,ESE,108,0.0,1.0,90,0.04,,-RA,0.23,VWS V14.01,2013-01-11 21:02:00,
2013-01-11 16:07:00,38.1,35.4,30.16,NE,39,0.0,2.0,90,0.04,,-RA,0.23,VWS V14.01,2013-01-11 21:07:00,
2013-01-11 16:12:00,38.1,35.7,30.16,NE,47,1.0,2.0,91,0.04,,-RA,0.23,VWS V14.01,2013-01-11 21:12:00,
2013-01-11 16:17:00,38.1,35.4,30.16,NNE,25,3.0,3.0,90,0.04,,-RA,0.23,VWS V14.01,2013-01-11 21:17:00,
2013-01-11 16:22:00,38.5,35.8,30.16,ESE,117,3.0,7.0,90,0.04,,-RA,0.23,VWS V14.01,2013-01-11 21:22:00,
2013-01-11 16:27:00,38.7,35.7,30.16,NE,36,1.0,7.0,89,0.04,,-RA,0.23,VWS V14.01,2013-01-11 21:27:00,
2013-01-11 16:32:00,38.8,35.8,30.16,East,83,0.0,2.0,89,0.01,,OVC013,0.24,VWS V14.01,2013-01-11 21:32:00,
2013-01-11 16:37:00,38.9,35.9,30.16,NNE,20,0.0,2.0,89,0.01,,OVC013,0.24,VWS V14.01,2013-01-11 21:37:00,
2013-01-11 16:42:00,38.8,35.8,30.16,ENE,74,2.0,3.0,89,0.02,,OVC013,0.25,VWS V14.01,2013-01-11 21:42:00,
2013-01-11 16:47:00,38.6,35.9,30.15,NE,40,1.0,6.0,90,0.03,,OVC013,0.26,VWS V14.01,2013-01-11 21:47:00,
2013-01-11 16:52:00,38.5,35.8,30.15,ENE,76,0.0,6.0,90,0.04,,OVC013,0.27,VWS V14.01,2013-01-11 21:52:00,
2013-01-11 16:57:00,38.5,36.1,30.14,NE,49,1.0,6.0,91,0.05,,OVC013,0.28,VWS V14.01,2013-01-11 21:57:00,
2013-01-11 17:02:00,38.4,36.0,30.14,ENE,75,2.0,2.0,91,0.06,,RA,0.29,VWS V14.01,2013-01-11 22:02:00,
2013-01-11 17:07:00,38.4,36.0,30.14,East,91,0.0,2.0,91,0.06,,RA,0.29,VWS V14.01,2013-01-11 22:07:00,
2013-01-11 17:12:00,38.4,36.3,30.14,ENE,75,3.0,5.0,92,0.06,,RA,0.29,VWS V14.01,2013-01-11 22:12:00,
2013-01-11 17:17:00,38.7,36.6,30.13,NE,39,2.0,5.0,92,0.06,,RA,0.29,VWS V14.01,2013-01-11 22:17:00,
2013-01-11 17:22:00,38.7,36.3,30.12,East,96,4.0,5.0,91,0.06,,RA,0.29,VWS V14.01,2013-01-11 22:22:00,
2013-01-11 17:27:00,38.9,36.5,30.14,ESE,115,1.0,5.0,91,0.06,,RA,0.29,VWS V14.01,2013-01-11 22:27:00,
2013-01-11 17:32:00,38.9,36.5,30.13,NE,38,2.0,4.0,91,0.06,,RA,0.29,VWS V14.01,2013-01-11 22:32:00,
2013-01-11 17:37:00,39.0,36.6,30.13,East,79,0.0,4.0,91,0.06,,RA,0.29,VWS V14.01,2013-01-11 22:37:00,
2013-01-11 17:42:00,38.9,36.5,30.13,East,82,1.0,4.0,91,0.06,,RA,0.29,VWS V14.01,2013-01-11 22:42:00,
2013-01-11 17:47:00,38.9,36.5,30.13,East,88,0.0,4.0,91,0.06,,RA,0.29,VWS V14.01,2013-01-11 22:47:00,
2013-01-11 17:52:00,38.9,36.8,30.13,East,91,0.0,4.0,92,0.06,,RA,0.29,VWS V14.01,2013-01-11 22:52:00,
2013-01-11 17:57:00,39.1,36.7,30.13,East,83,1.0,4.0,91,0.06,,RA,0.29,VWS V14.01,2013-01-11 22:57:00,
2013-01-11 18:02:00,39.1,36.7,30.12,ENE,73,3.0,3.0,91,0.00,,,0.29,VWS V14.01,2013-01-11 23:02:00,
2013-01-11 18:07:00,39.2,36.8,30.11,ESE,115,3.0,5.0,91,0.01,,,0.30,VWS V14.01,2013-01-11 23:07:00,
2013-01-11 18:12:00,39.2,36.8,30.12,East,98,1.0,5.0,91,0.01,,,0.30,VWS V14.01,2013-01-11 23:12:00,
2013-01-11 18:17:00,39.2,36.8,30.11,East,80,1.0,5.0,91,0.02,,,0.31,VWS V14.01,2013-01-11 23:17:00,
2013-01-11 18:22:00,39.3,37.2,30.11,ENE,73,3.0,5.0,92,0.02,,,0.31,VWS V14.01,2013-01-11 23:22:00,
2013-01-11 18:27:00,39.3,37.2,30.11,ESE,102,0.0,5.0,92,0.02,,,0.31,VWS V14.01,2013-01-11 23:27:00,
2013-01-11 18:32:00,39.3,37.2,30.12,NNE,25,1.0,2.0,92,0.03,,,0.32,VWS V14.01,2013-01-11 23:32:00,
2013-01-11 18:37:00,39.4,37.3,30.13,NE,52,0.0,3.0,92,0.03,,,0.32,VWS V14.01,2013-01-11 23:37:00,
2013-01-11 18:42:00,39.5,37.1,30.13,NE,52,0.0,3.0,91,0.03,,,0.32,VWS V14.01,2013-01-11 23:42:00,
2013-01-11 18:47:00,39.3,37.2,30.13,WNW,284,2.0,3.0,92,0.03,,,0.32,VWS V14.01,2013-01-11 23:47:00,
2013-01-11 18:52:00,39.0,36.9,30.13,West,263,0.0,3.0,92,0.03,,,0.32,VWS V14.01,2013-01-11 23:52:00,
2013-01-11 18:57:00,38.8,36.7,30.12,SSE,163,0.0,3.0,92,0.03,,,0.32,VWS V14.01,2013-01-11 23:57:00,
2013-01-11 19:02:00,39.0,37.2,30.12,ENE,76,1.0,1.0,93,0.03,,OVC009,0.32,VWS V14.01,2013-01-12 00:02:00,
2013-01-11 19:07:00,39.0,37.2,30.12,NNE,15,1.0,3.0,93,0.03,,OVC009,0.32,VWS V14.01,2013-01-12 00:07:00,
2013-01-11 19:12:00,39.0,37.2,30.12,NE,37,2.0,4.0,93,0.03,,OVC009,0.32,VWS V14.01,2013-01-12 00:12:00,
2013-01-11 19:17:00,38.9,37.0,30.12,East,85,1.0,4.0,93,0.03,,OVC009,0.32,VWS V14.01,2013-01-12 00:17:00,
2013-01-11 19:22:00,38.8,37.0,30.12,SE,125,0.0,4.0,93,0.03,,OVC009,0.32,VWS V14.01,2013-01-12 00:22:00,
2013-01-11 19:27:00,38.7,36.8,30.12,SW,222,0.0,4.0,93,0.03,,OVC009,0.32,VWS V14.01,2013-01-12 00:27:00,
2013-01-11 19:32:00,38.6,36.8,30.12,SW,221,0.0,0.0,93,0.00,,OVC009,0.32,VWS V14.01,2013-01-12 00:32:00,
2013-01-11 19:37:00,38.5,36.7,30.12,NNW,336,0.0,0.0,93,0.00,,OVC009,0.32,VWS V14.01,2013-01-12 00:37:00,
2013-01-11 19:42:00,38.4,36.8,30.12,NNW,338,0.0,0.0,94,0.00,,OVC009,0.32,VWS V14.01,2013-01-12 00:42:00,
2013-01-11 19:47:00,38.3,36.7,30.11,NNW,338,0.0,0.0,94,0.00,,OVC009,0.32,VWS V14.01,2013-01-12 00:47:00,
2013-01-11 19:52:00,38.4,36.8,30.12,ESE,104,0.0,4.0,94,0.00,,OVC009,0.32,VWS V14.01,2013-01-12 00:52:00,
2013-01-11 19:57:00,38.5,36.9,30.12,NE,43,1.0,4.0,94,0.00,,OVC009,0.32,VWS V14.01,2013-01-12 00:57:00,
2013-01-11 20:02:00,38.5,36.9,30.12,East,84,0.0,0.0,94,0.00,,OVC009,0.32,VWS V14.01,2013-01-12 01:02:00,
2013-01-11 20:07:00,38.5,36.9,30.11,North,11,1.0,2.0,94,0.00,,OVC009,0.32,VWS V14.01,2013-01-12 01:07:00,
2013-01-11 20:12:00,38.3,36.7,30.11,ENE,60,0.0,2.0,94,0.00,,OVC009,0.32,VWS V14.01,2013-01-12 01:12:00,
2013-01-11 20:17:00,38.2,36.6,30.11,ESE,113,0.0,2.0,94,0.00,,OVC009,0.32,VWS V14.01,2013-01-12 01:17:00,
2013-01-11 20:22:00,38.1,36.5,30.11,NE,40,1.0,2.0,94,0.00,,OVC009,0.32,VWS V14.01,2013-01-12 01:22:00,
2013-01-11 20:27:00,38.0,36.4,30.11,NE,40,0.0,2.0,94,0.00,,OVC009,0.32,VWS V14.01,2013-01-12 01:27:00,
2013-01-11 20:32:00,38.0,36.7,30.11,NE,39,1.0,1.0,95,0.00,,OVC009,0.32,VWS V14.01,2013-01-12 01:32:00,
2013-01-11 20:37:00,38.0,36.7,30.11,NE,39,1.0,1.0,95,0.00,,OVC009,0.32,VWS V14.01,2013-01-12 01:37:00,
2013-01-11 20:42:00,37.9,36.6,30.11,East,89,0.0,2.0,95,0.00,,OVC009,0.32,VWS V14.01,2013-01-12 01:42:00,
2013-01-11 20:47:00,37.7,36.4,30.11,ENE,66,0.0,2.0,95,0.00,,OVC009,0.32,VWS V14.01,2013-01-12 01:47:00,
2013-01-11 20:52:00,37.7,36.4,30.11,East,86,0.0,2.0,95,0.00,,OVC009,0.32,VWS V14.01,2013-01-12 01:52:00,
2013-01-11 20:57:00,37.7,36.4,30.12,East,86,0.0,2.0,95,0.00,,OVC009,0.32,VWS V14.01,2013-01-12 01:57:00,
2013-01-11 21:02:00,37.7,36.4,30.11,East,95,0.0,0.0,95,0.00,,,0.32,VWS V14.01,2013-01-12 02:02:00,
2013-01-11 21:07:00,37.7,36.4,30.11,East,94,0.0,0.0,95,0.00,,,0.32,VWS V14.01,2013-01-12 02:07:00,
2013-01-11 21:12:00,37.5,36.2,30.11,South,173,0.0,0.0,95,0.00,,,0.32,VWS V14.01,2013-01-12 02:12:00,
2013-01-11 21:17:00,37.4,36.1,30.11,South,173,0.0,0.0,95,0.00,,,0.32,VWS V14.01,2013-01-12 02:17:00,
2013-01-11 21:22:00,37.2,35.9,30.11,East,83,1.0,2.0,95,0.00,,,0.32,VWS V14.01,2013-01-12 02:22:00,
2013-01-11 21:27:00,37.0,35.7,30.11,ENE,77,0.0,2.0,95,0.00,,,0.32,VWS V14.01,2013-01-12 02:27:00,
2013-01-11 21:32:00,36.9,35.6,30.11,East,85,1.0,2.0,95,0.00,,,0.32,VWS V14.01,2013-01-12 02:32:00,
2013-01-11 21:37:00,36.8,35.8,30.11,East,84,0.0,2.0,96,0.00,,,0.32,VWS V14.01,2013-01-12 02:37:00,
2013-01-11 21:42:00,36.8,35.8,30.10,East,86,2.0,2.0,96,0.00,,,0.32,VWS V14.01,2013-01-12 02:42:00,
2013-01-11 21:47:00,36.8,35.8,30.10,East,86,0.0,2.0,96,0.00,,,0.32,VWS V14.01,2013-01-12 02:47:00,
2013-01-11 21:52:00,36.8,35.8,30.11,East,86,0.0,2.0,96,0.00,,,0.32,VWS V14.01,2013-01-12 02:52:00,
2013-01-11 21:57:00,36.8,35.8,30.10,East,86,0.0,2.0,96,0.00,,,0.32,VWS V14.01,2013-01-12 02:57:00,
2013-01-11 22:02:00,36.7,35.7,30.10,East,95,0.0,0.0,96,0.00,,,0.32,VWS V14.01,2013-01-12 03:02:00,
2013-01-11 22:07:00,36.7,35.7,30.10,East,93,0.0,0.0,96,0.00,,,0.32,VWS V14.01,2013-01-12 03:07:00,
2013-01-11 22:12:00,36.6,35.6,30.11,East,79,0.0,1.0,96,0.00,,,0.32,VWS V14.01,2013-01-12 03:12:00,
2013-01-11 22:17:00,36.5,35.5,30.10,East,79,0.0,1.0,96,0.00,,,0.32,VWS V14.01,2013-01-12 03:17:00,
2013-01-11 22:22:00,36.5,35.5,30.10,East,79,0.0,1.0,96,0.00,,,0.32,VWS V14.01,2013-01-12 03:22:00,
2013-01-11 22:27:00,36.5,35.5,30.10,East,79,0.0,1.0,96,0.00,,,0.32,VWS V14.01,2013-01-12 03:27:00,
2013-01-11 22:32:00,36.5,35.5,30.10,East,79,0.0,0.0,96,0.00,,,0.32,VWS V14.01,2013-01-12 03:32:00,
2013-01-11 22:37:00,36.5,35.5,30.10,ENE,77,0.0,0.0,96,0.00,,,0.32,VWS V14.01,2013-01-12 03:37:00,
2013-01-11 22:42:00,36.6,35.6,30.10,ENE,78,0.0,0.0,96,0.00,,,0.32,VWS V14.01,2013-01-12 03:42:00,
2013-01-11 22:47:00,36.6,35.6,30.10,ENE,78,0.0,0.0,96,0.00,,,0.32,VWS V14.01,2013-01-12 03:47:00,
2013-01-11 22:52:00,36.6,35.6,30.10,NNE,21,1.0,2.0,96,0.00,,,0.32,VWS V14.01,2013-01-12 03:52:00,
2013-01-11 22:57:00,36.6,35.6,30.10,NNE,21,0.0,2.0,96,0.00,,,0.32,VWS V14.01,2013-01-12 03:57:00,
2013-01-11 23:02:00,36.6,35.6,30.10,NNE,20,0.0,0.0,96,0.00,,,0.32,VWS V14.01,2013-01-12 04:02:00,
2013-01-11 23:07:00,36.6,35.6,30.10,NNE,20,0.0,0.0,96,0.00,,,0.32,VWS V14.01,2013-01-12 04:07:00,
2013-01-11 23:12:00,36.5,35.5,30.10,NNE,20,0.0,1.0,96,0.00,,,0.32,VWS V14.01,2013-01-12 04:12:00,
2013-01-11 23:17:00,36.5,35.7,30.10,East,84,1.0,2.0,97,0.00,,,0.32,VWS V14.01,2013-01-12 04:17:00,
2013-01-11 23:22:00,36.4,35.4,30.10,ENE,77,0.0,2.0,96,0.00,,,0.32,VWS V14.01,2013-01-12 04:22:00,
2013-01-11 23:27:00,36.5,35.7,30.10,East,79,0.0,2.0,97,0.00,,,0.32,VWS V14.01,2013-01-12 04:27:00,
2013-01-11 23:32:00,36.4,35.4,30.10,East,100,0.0,0.0,96,0.00,,,0.32,VWS V14.01,2013-01-12 04:32:00,
2013-01-11 23:37:00,36.3,35.5,30.10,East,100,0.0,0.0,97,0.00,,,0.32,VWS V14.01,2013-01-12 04:37:00,
2013-01-11 23:42:00,36.4,35.6,30.10,East,98,0.0,0.0,97,0.00,,,0.32,VWS V14.01,2013-01-12 04:42:00,
2013-01-11 23:47:00,36.5,35.7,30.10,East,98,0.0,0.0,97,0.00,,,0.32,VWS V14.01,2013-01-12 04:47:00,
2013-01-11 23:52:00,36.5,35.7,30.10,East,98,0.0,0.0,97,0.00,,,0.32,VWS V14.01,2013-01-12 04:52:00,
2013-01-11 23:57:00,36.5,35.7,30.10,East,98,0.0,0.0,97,0.00,,,0.32,VWS V14.01,2013-01-12 04:57:00,